This is the latest recevied weather packets stored in our database for station/object KD0MAC. If no packets are shown the sender has not sent any weather packets the latest 10 day(s).
| Time | Temp. | Humidity | Pressure | Rain* | Wind** | Luminosity | Snow |
|---|---|---|---|---|---|---|---|
| 1777306041 | 13.89° C | 65% | 1008.5 hPa | 0 mm | - | 463 W/m² | - |
| 1777305742 | 13.33° C | 67% | 1008.5 hPa | 0 mm | - | 520 W/m² | - |
| 1777305442 | 13.33° C | 66% | 1008.5 hPa | 0 mm | - | 445 W/m² | - |
| 1777305141 | 13.33° C | 67% | 1008.5 hPa | 0 mm | - | 426 W/m² | - |
| 1777304842 | 12.78° C | 68% | 1008.5 hPa | 0 mm | - | 418 W/m² | - |
| 1777304542 | 12.78° C | 71% | 1008.5 hPa | 0 mm | - | 402 W/m² | - |
| 1777304241 | 12.78° C | 69% | 1008.5 hPa | 0 mm | - | 285 W/m² | - |
| 1777303941 | 12.78° C | 72% | 1008.5 hPa | 0 mm | - | 411 W/m² | - |
| 1777303641 | 12.22° C | 70% | 1008.5 hPa | 0 mm | - | 379 W/m² | - |
| 1777303341 | 12.22° C | 73% | 1008.1 hPa | 0 mm | - | 357 W/m² | - |
| 1777303041 | 11.67° C | 72% | 1008.1 hPa | 0 mm | - | 364 W/m² | - |
| 1777302741 | 12.22° C | 73% | 1008.1 hPa | 0 mm | - | 223 W/m² | - |
| 1777302441 | 11.67° C | 74% | 1008.1 hPa | 0 mm | - | 345 W/m² | - |
| 1777302141 | 11.11° C | 76% | 1007.8 hPa | 0 mm | - | 343 W/m² | - |
| 1777301840 | 11.11° C | 76% | 1007.8 hPa | 0 mm | - | 339 W/m² | - |
| 1777301542 | 11.67° C | 76% | 1007.8 hPa | 0 mm | - | 189 W/m² | - |
| 1777301240 | 11.67° C | 74% | 1007.8 hPa | 0 mm | - | 321 W/m² | - |
| 1777300941 | 11.67° C | 77% | 1007.8 hPa | 0 mm | - | 300 W/m² | - |
| 1777300640 | 11.67° C | 79% | 1007.5 hPa | 0 mm | - | 305 W/m² | - |
| 1777300342 | 11.11° C | 80% | 1007.5 hPa | 0 mm | - | 286 W/m² | - |
| 1777300041 | 10.56° C | 81% | 1007.5 hPa | 0 mm | - | 261 W/m² | - |
| 1777299740 | 10.56° C | 80% | 1007.5 hPa | 0 mm | - | 122 W/m² | - |
| 1777299442 | 10.56° C | 81% | 1007.5 hPa | 0 mm | - | 203 W/m² | - |
| 1777299141 | 10° C | 82% | 1007.5 hPa | 0 mm | - | 209 W/m² | - |
| 1777298844 | 10° C | 82% | 1007.5 hPa | 0 mm | - | 196 W/m² | - |
* Rain latest hour (hover to see other rain measurements)
** Current wind speed in m/s (hover to see current wind gust speed)